User: anonymous   Login
Location: Sungai Dangang
(2.7500°N, 113.8333°E)
Time: 00:46:53
(UTC+00:00)
Language:

Ariane H10+ - Orbit

View from above orbital plane
View from above orbital plane
View from above satellite
View from above satellite

Ground track
Ground track

The orbit data is extracted from the following two-line orbital elements,

1 22913U 93073C   21213.67028566  .00038165  00000-0  98127-3 0  9991
2 22913   6.7547 223.2447 3658314 315.8071  20.1605  8.14793055536816
Epoch (UTC): 01 August 2021 16:05:12
Eccentricity: 0.3658314
inclination: 6.7547°
perigee height: 237 km
apogee height: 7870 km
right ascension of ascending node: 223.2447°
argument of perigee: 315.8071°
revolutions per day: 8.14793055
mean anomaly at epoch: 20.1605°
orbit number at epoch: 53681

The dashed part of the orbit path shows where the satellite is in the earth's shadow,  

DLR